[ hide orbit diagram ]
For accurate long-term ephemerides, please instead use our Horizons system.This orbit viewer was implemented using two-body methods, and hence should not be used for determining accurate long-term trajectories (over several years or decades) or planetary encounter circumstances.
Orbital Elements at Epoch 2459200.5 (2020-Dec-17.0) TDB
Reference: JPL 17 (heliocentric ecliptic J2000)
Element | Value | Uncertainty (1-sigma) | Units |
e | .07048093730648985 | 4.3575e-08 | |
a | 2.688189239850427 | 1.9214e-08 | au |
q | 2.498723142568548 | 1.2209e-07 | au |
i | 12.03458272399648 | 4.8194e-06 | deg |
node | 60.46558811860291 | 2.2682e-05 | deg |
peri | 354.5628526874319 | 4.4917e-05 | deg |
M | 279.9147443650475 | 4.1775e-05 | deg |
tp | 2459558.627977338756 (2021-Dec-10.12797734) | 0.00018891 | TDB |
period | 1609.860277272853 4.41 | 1.726e-05 4.726e-08 | d yr |
n | .2236218913419305 | 2.3976e-09 | deg/d |
Q | 2.877655337132305 | 2.0569e-08 | au |
|
| | Orbit Determination Parameters
Additional Information
|
[ show covariance matrix ]
Physical Parameter Table
Parameter |
Symbol |
Value |
Units |
Sigma |
Reference |
Notes |
absolute magnitude |
H |
15.44 |
|
n/a |
E2021B55 |
|
|
130066 Timhaltigin | Discovered 1999 Nov. 1 by the Catalina Sky Survey. |
Timothy Haltigin (b. 1976) is the Senior Mission Scientist in Planetary Exploration at the Canadian Space Agency. He is actively involved in the preparatory stages for a variety of planetary sample return missions, and currently is the Mission Manager for the OSIRIS-REx Laser Altimeter. |
NOTE: some special characters may not display properly (any characters within {} are an attempt to place the proper accent above a character) |
Reference: MPC batch dated 2016-11-14 | Last Updated: 2016-11-20 |
|
[ show close-approach data ]
|